TimeEDT,TemperatureF,Dew PointF,Humidity,Sea Level PressureIn,VisibilityMPH,Wind Direction,Wind SpeedMPH,Gust SpeedMPH,PrecipitationIn,Events,Conditions,WindDirDegrees,DateUTC
12:16 AM,62.6,59.0,88,30.17,7.0,Calm,Calm,-,N/A,,Clear,0,2013-08-21 04:16:00
12:36 AM,60.8,59.0,94,30.17,10.0,Calm,Calm,-,N/A,,Clear,0,2013-08-21 04:36:00
12:57 AM,60.8,59.0,94,30.18,7.0,Calm,Calm,-,N/A,,Clear,0,2013-08-21 04:57:00
1:16 AM,60.8,59.0,94,30.18,7.0,Calm,Calm,-,N/A,,Clear,0,2013-08-21 05:16:00
1:37 AM,60.8,59.0,94,30.18,7.0,Calm,Calm,-,N/A,,Clear,0,2013-08-21 05:37:00
1:57 AM,60.8,57.2,88,30.17,7.0,Calm,Calm,-,N/A,,Clear,0,2013-08-21 05:57:00
2:16 AM,59.0,57.2,94,30.17,7.0,Calm,Calm,-,N/A,,Clear,0,2013-08-21 06:16:00
2:37 AM,59.0,55.4,88,30.17,7.0,Calm,Calm,-,N/A,,Clear,0,2013-08-21 06:37:00
2:57 AM,59.0,55.4,88,30.17,7.0,Calm,Calm,-,N/A,,Clear,0,2013-08-21 06:57:00
3:16 AM,59.0,57.2,94,30.17,7.0,Calm,Calm,-,N/A,,Clear,0,2013-08-21 07:16:00
3:37 AM,59.0,55.4,88,30.16,7.0,Calm,Calm,-,N/A,,Clear,0,2013-08-21 07:37:00
3:57 AM,59.0,55.4,88,30.17,5.0,Calm,Calm,-,N/A,,Clear,0,2013-08-21 07:57:00
4:16 AM,59.0,55.4,88,30.16,5.0,Calm,Calm,-,N/A,,Clear,0,2013-08-21 08:16:00
4:37 AM,59.0,55.4,88,30.16,5.0,Calm,Calm,-,N/A,,Clear,0,2013-08-21 08:37:00
4:57 AM,57.2,55.4,94,30.16,5.0,Calm,Calm,-,N/A,,Clear,0,2013-08-21 08:57:00
5:16 AM,57.2,55.4,94,30.17,5.0,Calm,Calm,-,N/A,,Clear,0,2013-08-21 09:16:00
5:37 AM,57.2,55.4,94,30.17,4.0,Calm,Calm,-,N/A,,Clear,0,2013-08-21 09:37:00
5:57 AM,57.2,55.4,94,30.17,3.0,Calm,Calm,-,N/A,,Clear,0,2013-08-21 09:57:00
6:16 AM,55.4,55.4,100,30.17,5.0,Calm,Calm,-,N/A,,Clear,0,2013-08-21 10:16:00
6:37 AM,57.2,55.4,94,30.17,5.0,Calm,Calm,-,N/A,,Clear,0,2013-08-21 10:37:00
6:57 AM,55.4,55.4,100,30.18,4.0,Calm,Calm,-,N/A,,Clear,0,2013-08-21 10:57:00
7:16 AM,57.2,55.4,94,30.18,2.5,Calm,Calm,-,N/A,,Clear,0,2013-08-21 11:16:00
7:37 AM,59.0,55.4,88,30.18,3.0,Calm,Calm,-,N/A,,Clear,0,2013-08-21 11:37:00
7:57 AM,60.8,59.0,94,30.19,3.0,Calm,Calm,-,N/A,,Clear,0,2013-08-21 11:57:00
8:16 AM,64.4,62.6,94,30.19,3.0,Calm,Calm,-,N/A,Thunderstorm,Clear,0,2013-08-21 12:16:00
8:37 AM,68.0,62.6,83,30.20,5.0,Calm,Calm,-,N/A,,Haze,0,2013-08-21 12:37:00
8:57 AM,68.0,62.6,83,30.20,5.0,Calm,Calm,-,N/A,,Haze,0,2013-08-21 12:57:00
9:16 AM,71.6,62.6,73,30.20,7.0,SSE,3.5,-,N/A,,Clear,150,2013-08-21 13:16:00
9:37 AM,73.4,62.6,69,30.20,10.0,Calm,Calm,-,N/A,,Clear,0,2013-08-21 13:37:00
9:57 AM,75.2,62.6,65,30.20,10.0,South,3.5,-,N/A,,Clear,190,2013-08-21 13:57:00
10:16 AM,75.2,62.6,65,30.20,10.0,SSW,3.5,-,N/A,,Mostly Cloudy,210,2013-08-21 14:16:00
10:37 AM,73.4,60.8,65,30.20,10.0,SSW,3.5,-,N/A,,Overcast,210,2013-08-21 14:37:00
10:57 AM,77.0,62.6,61,30.20,10.0,SSE,4.6,-,N/A,,Mostly Cloudy,150,2013-08-21 14:57:00
11:16 AM,77.0,62.6,61,30.20,10.0,South,4.6,-,N/A,,Mostly Cloudy,170,2013-08-21 15:16:00
11:37 AM,75.2,60.8,61,30.20,10.0,SSE,5.8,-,N/A,,Mostly Cloudy,160,2013-08-21 15:37:00
11:57 AM,75.2,62.6,65,30.20,10.0,Calm,Calm,-,N/A,,Overcast,0,2013-08-21 15:57:00
12:16 PM,77.0,62.6,61,30.20,10.0,Calm,Calm,-,N/A,,Mostly Cloudy,0,2013-08-21 16:16:00
12:37 PM,78.8,62.6,57,30.19,10.0,SE,3.5,-,N/A,,Overcast,140,2013-08-21 16:37:00
12:57 PM,78.8,64.4,61,30.19,10.0,Calm,Calm,-,N/A,,Mostly Cloudy,0,2013-08-21 16:57:00
1:17 PM,80.6,64.4,58,30.17,10.0,Calm,Calm,-,N/A,,Scattered Clouds,0,2013-08-21 17:17:00
1:37 PM,80.6,62.6,54,30.16,10.0,South,5.8,-,N/A,,Scattered Clouds,180,2013-08-21 17:37:00
1:57 PM,80.6,62.6,54,30.15,10.0,Calm,Calm,-,N/A,,Clear,0,2013-08-21 17:57:00
2:17 PM,80.6,62.6,54,30.15,10.0,South,5.8,-,N/A,,Clear,190,2013-08-21 18:17:00
2:37 PM,80.6,64.4,58,30.13,10.0,Calm,Calm,-,N/A,,Clear,0,2013-08-21 18:37:00
2:57 PM,82.4,64.4,54,30.13,10.0,Calm,Calm,-,N/A,,Clear,0,2013-08-21 18:57:00
3:17 PM,80.6,64.4,58,30.12,10.0,WSW,3.5,-,N/A,,Clear,250,2013-08-21 19:17:00
3:37 PM,80.6,64.4,58,30.12,10.0,SSW,3.5,-,N/A,Thunderstorm,Thunderstorm,210,2013-08-21 19:37:00
3:56 PM,78.8,64.4,61,30.12,10.0,Calm,Calm,-,N/A,,Clear,0,2013-08-21 19:56:00
4:17 PM,77.0,64.4,65,30.13,10.0,South,3.5,-,N/A,,Mostly Cloudy,170,2013-08-21 20:17:00
4:37 PM,78.8,64.4,61,30.12,10.0,Calm,Calm,-,N/A,Thunderstorm,Mostly Cloudy,0,2013-08-21 20:37:00
4:56 PM,78.8,66.2,65,30.11,10.0,SSE,4.6,-,N/A,Thunderstorm,Thunderstorm,150,2013-08-21 20:56:00
5:17 PM,78.8,66.2,65,30.12,10.0,East,5.8,-,N/A,Thunderstorm,Scattered Clouds,100,2013-08-21 21:17:00
5:37 PM,80.6,66.2,61,30.12,10.0,East,6.9,-,N/A,,Clear,100,2013-08-21 21:37:00
5:56 PM,77.0,64.4,65,30.12,10.0,SE,4.6,-,N/A,Thunderstorm,Clear,140,2013-08-21 21:56:00
6:17 PM,77.0,66.2,69,30.12,10.0,Calm,Calm,-,N/A,Thunderstorm,Clear,0,2013-08-21 22:17:00
6:37 PM,75.2,66.2,73,30.12,10.0,WNW,10.4,-,N/A,Thunderstorm,Thunderstorm,290,2013-08-21 22:37:00
6:56 PM,71.6,60.8,69,30.11,10.0,West,6.9,-,N/A,Rain-Thunderstorm,Rain,280,2013-08-21 22:56:00
7:17 PM,68.0,60.8,78,30.10,10.0,Calm,Calm,-,N/A,,Scattered Clouds,0,2013-08-21 23:17:00
7:37 PM,68.0,57.2,68,30.10,10.0,West,3.5,-,N/A,,Clear,280,2013-08-21 23:37:00
7:56 PM,66.2,59.0,78,30.10,10.0,Calm,Calm,-,N/A,,Clear,0,2013-08-21 23:56:00
8:17 PM,66.2,59.0,78,30.09,10.0,Calm,Calm,-,N/A,,Clear,0,2013-08-22 00:17:00
8:37 PM,64.4,59.0,83,30.08,10.0,SSW,3.5,-,N/A,,Clear,210,2013-08-22 00:37:00
8:56 PM,64.4,59.0,83,30.10,10.0,SSE,5.8,-,N/A,,Clear,160,2013-08-22 00:56:00
9:17 PM,64.4,55.4,73,30.10,10.0,South,3.5,-,N/A,,Clear,190,2013-08-22 01:17:00
9:37 PM,62.6,55.4,77,30.10,10.0,SSE,4.6,-,N/A,,Clear,150,2013-08-22 01:37:00
9:56 PM,64.4,57.2,77,30.10,10.0,Calm,Calm,-,N/A,,Clear,0,2013-08-22 01:56:00
10:17 PM,62.6,59.0,88,30.11,10.0,Calm,Calm,-,N/A,,Clear,0,2013-08-22 02:17:00
10:37 PM,60.8,59.0,94,30.12,10.0,Calm,Calm,-,N/A,,Clear,0,2013-08-22 02:37:00
10:56 PM,60.8,59.0,94,30.13,10.0,Calm,Calm,-,N/A,,Clear,0,2013-08-22 02:56:00
11:17 PM,60.8,59.0,94,30.14,10.0,Calm,Calm,-,N/A,,Clear,0,2013-08-22 03:17:00
11:37 PM,60.8,59.0,94,30.13,10.0,Calm,Calm,-,N/A,,Clear,0,2013-08-22 03:37:00
11:56 PM,60.8,57.2,88,30.14,10.0,Calm,Calm,-,N/A,,Clear,0,2013-08-22 03:56:00